This is the latest recevied weather packets stored in our database for station/object KM5VY. If no packets are shown the sender has not sent any weather packets the latest 10 day(s).
| Time | Temp. | Humidity | Pressure | Rain* | Wind** | Luminosity | Snow |
|---|---|---|---|---|---|---|---|
| 1788209913 | 31.67° C | 31% | 1023.4 hPa | 0 mm | - | - | - |
| 1788209312 | 31.67° C | 32% | 1023.4 hPa | 0 mm | - | - | - |
| 1788208711 | 31.67° C | 31% | 1023.7 hPa | 0 mm | - | - | - |
| 1788208110 | 31.67° C | 32% | 1023.7 hPa | 0 mm | - | - | - |
| 1788207509 | 31.67° C | 32% | 1023.7 hPa | 0 mm | - | - | - |
| 1788206908 | 31.11° C | 32% | 1024 hPa | 0 mm | - | - | - |
| 1788206307 | 31.11° C | 32% | 1024 hPa | 0 mm | - | - | - |
| 1788205706 | 31.11° C | 32% | 1024.4 hPa | 0 mm | - | - | - |
| 1788205105 | 30° C | 32% | 1024.4 hPa | 0 mm | - | - | - |
| 1788204504 | 29.44° C | 33% | 1024.7 hPa | 0 mm | - | - | - |
| 1788203903 | 29.44° C | 33% | 1024.7 hPa | 0 mm | - | - | - |
| 1788203303 | 29.44° C | 33% | 1025.1 hPa | 0 mm | - | - | - |
| 1788202701 | 29.44° C | 33% | 1025.1 hPa | 0 mm | - | - | - |
| 1788202101 | 30° C | 33% | 1025.1 hPa | 0 mm | - | - | - |
| 1788201499 | 30° C | 33% | 1025.1 hPa | 0 mm | - | - | - |
| 1788200898 | 30.56° C | 32% | 1025.4 hPa | 0 mm | - | - | - |
| 1788200297 | 31.11° C | 31% | 1025.4 hPa | 0 mm | - | - | - |
| 1788199696 | 31.67° C | 31% | 1025.4 hPa | 0 mm | - | - | - |
| 1788199095 | 31.11° C | 31% | 1025.4 hPa | 0 mm | - | - | - |
| 1788198494 | 30.56° C | 30% | 1025.4 hPa | 0 mm | - | - | - |
| 1788197893 | 30.56° C | 30% | 1025.4 hPa | 0 mm | - | - | - |
| 1788197292 | 30.56° C | 30% | 1025.4 hPa | 0 mm | - | - | - |
| 1788196691 | 30° C | 32% | 1025.4 hPa | 0 mm | - | - | - |
| 1788196090 | 28.89° C | 32% | 1025.4 hPa | 0 mm | - | - | - |
| 1788195489 | 28.33° C | 33% | 1025.4 hPa | 0 mm | - | - | - |
* Rain latest hour (hover to see other rain measurements)
** Current wind speed in m/s (hover to see current wind gust speed)